Theta_e
308 307 306 305 306 307 304 301 291 305 308 292 291 287 295 297 295 298 296 295 295 292 290 289 290 288 291 293 292 287 290 283 277 283 288 289 287 287 284 273 273 277 276 276
307 306 306 305 306 306 301 296 295 305 304 286 287 294 296 296 294 294 294 294 296 295 290 287 290 289 293 292 292 287 287 282 273 278 283 285 282 283 282 277 279 277 272 277
307 306 305 305 306 306 301 294 284 292 298 298 293 291 291 291 296 295 296 295 295 293 290 292 288 287 292 293 292 296 294 285 279 275 278 280 272 279 276 273 269 274 277 280
306 306 305 305 305 306 300 294 287 292 286 287 292 293 292 290 290 296 296 292 294 292 286 288 286 288 289 291 293 289 288 276 277 281 286 285 283 280 281 273 277 274 280 280
306 305 304 305 305 305 296 289 292 293 291 295 294 292 290 290 292 292 291 291 293 293 287 288 284 287 286 286 287 286 288 279 282 278 285 285 282 284 284 282 281 280 280 279
305 305 304 305 305 304 296 300 300 297 292 292 289 289 293 293 293 295 296 294 292 289 293 294 293 292 291 291 286 286 284 280 277 276 284 281 274 281 284 284 286 283 278 283
305 304 304 304 304 305 301 302 302 291 285 291 292 296 295 294 294 291 295 295 291 294 297 296 293 292 293 292 290 292 284 282 278 273 278 265 282 289 288 286 287 288 288 288
304 303 304 304 304 304 300 304 303 296 286 291 294 296 294 293 294 292 293 296 296 297 294 284 280 279 281 284 291 290 289 283 274 271 275 280 286 287 285 283 282 289 287 289
303 303 303 303 304 304 298 301 303 302 289 286 294 294 293 287 287 288 293 297 298 298 287 282 274 271 277 276 284 290 290 288 279 275 269 268 282 288 291 288 277 291 290 289
303 303 303 303 304 304 301 300 303 298 288 291 294 292 290 295 291 287 289 291 291 294 283 281 278 279 285 278 278 278 280 279 273 273 273 280 289 290 291 277 279 289 289 288
302 302 302 303 303 304 302 299 304 299 290 291 295 296 293 294 291 286 289 285 287 287 280 282 280 280 282 282 285 282 279 275 271 275 269 272 291 289 282 285 288 289 289 289
302 302 302 303 303 304 304 296 302 302 292 291 297 297 297 298 298 293 290 290 291 289 284 284 284 280 282 282 278 288 279 282 280 281 280 289 291 288 290 290 288 289 288 289
302 302 302 303 304 303 304 299 300 299 291 291 291 291 297 300 301 303 289 293 296 294 295 289 286 283 285 279 280 283 288 291 282 284 289 290 290 291 291 291 289 290 290 289
301 302 302 303 303 303 305 300 301 299 294 286 288 299 295 301 301 302 301 298 299 298 295 287 284 283 287 283 284 282 286 288 286 284 288 289 289 289 289 290 290 290 290 289
301 302 302 302 304 304 301 299 299 302 293 286 287 295 297 301 300 300 300 298 295 292 287 286 283 286 286 285 283 281 287 285 281 280 287 287 286 289 291 289 289 289 288 288
301 302 302 304 303 303 296 287 297 300 299 288 284 292 295 298 298 297 297 297 295 292 287 285 288 291 285 279 280 287 289 290 290 286 289 289 289 290 290 289 289 290 289 289
301 302 303 301 300 295 291 288 294 299 300 288 284 284 292 296 295 293 291 293 289 290 284 284 285 285 286 280 279 286 289 290 291 291 289 286 288 286 290 291 290 290 289 288
302 301 300 300 300 298 292 295 299 298 297 294 284 283 286 292 286 284 290 285 286 287 284 284 283 285 284 278 286 288 289 290 289 289 290 289 289 290 289 289 287 286 285 286
301 301 301 298 296 290 290 299 299 300 294 285 284 281 279 290 286 286 285 284 279 284 279 280 283 281 278 285 288 287 287 287 287 289 288 288 287 287 286 286 285 284 284 285
301 298 292 286 291 299 298 297 287 287 288 288 284 286 281 288 285 282 281 281 279 273 280 284 279 279 287 288 288 288 288 288 288 285 283 285 284 284 284 284 285 285 285 284
295 289 287 291 296 293 290 285 283 284 281 285 286 284 283 289 283 281 284 279 279 274 280 279 277 280 283 288 287 288 289 288 287 287 286 286 286 285 285 286 286 286 286 284
294 293 295 293 291 286 282 280 283 282 280 283 284 285 286 287 289 282 283 280 279 278 282 276 275 282 286 287 288 288 287 287 286 287 286 286 287 286 286 286 285 286 286 283
296 293 289 286 284 277 278 274 279 279 283 286 286 283 284 286 286 280 280 275 275 282 271 275 280 285 286 286 286 285 286 286 286 286 286 287 287 286 285 284 284 284 283 284
287 283 276 279 278 281 282 281 283 285 287 286 285 283 283 283 281 281 277 280 279 272 268 277 282 283 283 284 285 284 283 284 283 284 285 284 284 283 284 281 282 281 282 282
283 284 276 279 283 284 285 287 286 287 287 286 283 282 282 279 276 280 278 274 273 276 275 278 281 282 282 282 283 281 280 277 280 281 279 276 278 279 278 280 281 282 280 278
285 284 282 285 284 283 285 286 285 287 286 285 284 280 278 278 279 277 275 276 271 277 279 280 280 280 280 280 282 282 282 280 280 280 280 280 275 276 278 278 279 279 282 282
284 283 285 285 284 284 285 285 285 288 284 278 279 273 278 280 277 277 278 272 276 279 280 279 280 279 280 281 281 281 282 281 280 280 279 279 280 278 277 275 279 279 282 281
Wind_Speed
31 27 24 22 18 13 6 4 3 3 4 4 3 4 5 3 5 3 3 3 1 7 12 6 5 6 4 6 5 4 1 7 4 2 3 6 3 3 6 6 5 2 4 7
31 29 25 23 20 19 4 5 4 0 3 6 3 4 3 2 3 4 2 3 3 8 7 6 9 7 4 5 4 5 4 1 4 3 4 6 4 3 4 3 3 4 6 6
31 28 26 23 22 21 3 5 4 3 2 2 8 6 5 3 4 3 2 2 4 4 5 7 6 6 2 3 4 6 5 3 6 8 6 5 1 2 2 6 4 3 6 3
32 29 25 23 19 12 1 3 4 6 7 3 6 5 7 6 4 2 1 2 3 4 4 6 6 6 5 6 2 3 5 3 4 4 2 4 6 5 8 6 6 7 2 4
30 29 26 21 19 14 2 6 5 2 5 7 9 6 9 8 5 5 4 4 7 6 6 6 9 10 4 4 3 4 2 1 2 2 6 7 7 11 13 12 7 9 11 17
29 27 24 22 22 9 3 2 2 6 4 6 6 6 7 9 9 5 6 6 5 11 1 3 13 9 8 9 9 5 4 4 3 0 6 6 8 9 12 10 11 11 9 12
29 26 24 23 22 7 1 0 3 6 3 8 8 12 7 11 9 8 2 6 8 3 7 15 11 10 7 9 6 6 5 4 3 2 3 2 8 1 7 5 5 9 7 4
27 26 24 23 22 10 3 2 3 4 4 6 9 10 8 9 10 7 4 5 10 9 10 7 7 7 9 6 6 7 9 5 2 5 3 6 2 3 3 1 4 8 7 8
27 25 23 21 17 10 2 2 1 3 7 2 10 7 7 6 6 5 4 7 7 9 5 4 6 6 5 3 5 4 9 7 6 1 4 5 5 5 6 2 1 6 9 9
26 25 23 20 17 12 2 2 3 5 6 5 6 2 7 7 6 6 4 4 5 5 3 3 4 3 8 5 8 5 3 2 6 2 2 7 3 6 3 3 6 7 10 7
26 24 22 20 17 10 2 1 3 4 5 5 11 8 7 5 4 7 7 7 5 4 4 4 4 3 6 5 7 7 7 6 3 2 2 7 2 4 3 3 6 8 9 10
26 24 22 21 13 9 3 4 2 4 7 5 1 3 6 5 2 8 3 3 4 5 4 1 3 2 2 5 3 5 4 8 7 8 7 6 3 12 6 7 8 8 8 7
26 24 22 18 12 7 3 4 2 5 5 4 7 6 9 13 7 4 7 1 6 3 4 4 3 3 3 3 4 5 4 8 4 6 3 4 13 10 11 11 9 6 8 7
26 24 22 16 12 5 4 5 2 4 5 6 3 3 4 8 7 7 4 5 7 5 4 3 2 3 1 1 2 3 3 5 6 3 3 15 11 8 8 9 7 7 7 4
25 24 20 15 13 16 12 5 3 3 7 5 3 2 8 6 5 8 8 8 6 4 4 3 1 2 4 2 3 2 1 2 4 3 3 8 4 7 8 6 4 2 2 4
25 23 19 18 17 14 6 6 4 4 4 6 4 3 6 10 13 13 11 5 4 3 4 1 2 2 4 3 2 6 10 11 7 4 7 7 6 8 6 3 5 5 4 4
25 21 19 14 17 8 4 5 3 5 4 6 4 3 4 3 6 4 5 6 3 3 1 2 3 2 4 2 2 4 8 11 11 8 6 7 7 3 6 6 6 7 7 7
26 25 25 27 22 10 6 5 7 5 4 4 5 2 2 2 2 3 2 3 3 5 1 3 3 2 3 1 1 9 7 9 9 8 6 5 1 4 5 6 7 7 7 7
30 27 20 8 6 4 3 2 6 1 5 5 4 6 4 3 2 3 3 2 3 2 2 1 4 1 1 4 7 10 9 6 5 6 7 6 6 6 7 6 7 5 6 6
25 8 7 4 2 6 6 3 4 5 4 3 4 4 3 5 3 2 3 1 3 2 4 2 3 0 5 10 10 8 7 6 7 5 4 5 4 4 4 4 4 4 5 4
5 5 4 3 4 2 2 2 3 1 2 1 3 4 8 3 4 3 3 3 2 3 4 5 2 2 3 7 9 7 6 6 5 6 6 6 5 6 5 6 4 6 7 6
7 10 7 3 3 2 5 3 1 3 6 1 5 6 4 2 4 4 1 3 2 3 4 4 2 4 7 7 7 6 8 11 11 10 9 8 9 8 6 6 6 5 6 6
5 5 4 4 1 4 6 7 3 4 4 4 6 5 4 4 4 3 3 4 3 4 4 3 3 7 6 6 7 9 9 8 7 7 7 7 7 8 8 8 6 7 6 7
5 5 5 4 3 3 3 5 5 4 8 10 4 3 4 2 3 3 5 3 4 2 3 2 4 6 8 7 6 6 5 5 5 5 6 7 8 9 7 6 7 7 10 9
5 5 4 3 2 3 2 6 8 9 7 6 5 4 4 2 4 1 4 3 2 2 2 3 4 6 6 4 2 4 3 3 4 5 4 5 6 6 6 8 9 9 9 8
5 6 7 4 9 7 7 9 9 5 6 3 3 4 4 2 4 3 4 5 2 4 3 4 5 4 4 4 4 4 4 5 5 5 5 7 6 8 9 8 8 7 6 11
5 2 4 7 6 5 5 4 3 3 4 3 4 4 3 4 2 3 4 3 4 6 3 2 7 6 4 4 4 4 5 6 6 6 6 6 9 7 7 7 7 7 9 8
Wind_Direction
151 153 166 160 171 150 157 158 102 220 96 94 166 163 211 280 261 37 56 332 152 153 152 156 149 150 144 143 178 90 63 125 128 107 29 6 3 132 139 123 258 232 152 271
154 160 167 164 166 169 155 111 119 329 92 146 188 205 253 268 111 69 16 18 1 123 138 118 104 79 112 175 76 140 188 13 87 14 5 3 48 29 103 104 74 221 135 257
158 164 167 169 174 189 74 95 96 359 2 195 148 163 177 191 99 124 224 119 338 97 66 83 119 103 130 67 91 55 89 128 150 184 195 133 133 170 181 117 112 233 224 244
160 165 172 174 169 165 116 88 202 180 189 259 179 144 158 151 148 155 160 65 252 117 119 97 107 110 101 71 53 59 100 116 101 219 157 153 180 176 174 174 202 158 247 312
161 168 168 162 151 144 104 126 136 115 149 163 172 175 179 162 145 130 201 150 228 110 135 162 157 121 146 166 200 171 60 185 90 300 223 237 249 209 194 204 220 255 267 280
163 165 160 154 152 160 171 211 117 103 176 163 146 198 156 172 136 197 190 195 108 54 270 92 138 128 166 147 145 162 115 114 84 227 46 31 324 225 210 196 194 196 206 233
164 158 152 154 164 169 139 163 106 93 202 183 186 166 177 167 164 142 210 200 97 144 69 62 36 38 80 127 175 129 111 100 91 181 55 22 240 146 137 155 195 195 202 264
159 151 151 156 172 155 50 357 98 118 129 169 197 173 175 95 66 70 54 54 128 118 48 60 52 356 18 323 185 142 131 112 86 123 209 272 342 30 65 81 15 45 63 35
155 150 151 157 165 154 59 43 294 109 113 5 312 163 126 132 112 40 62 33 63 63 80 79 134 180 180 252 156 147 147 128 117 93 136 215 222 136 71 48 139 20 43 34
151 149 149 152 146 151 199 52 12 80 98 353 345 117 146 117 103 106 68 67 52 73 93 111 161 190 147 163 153 173 110 53 150 172 213 288 253 107 88 122 231 48 51 41
147 146 146 146 147 173 161 90 344 116 101 21 19 28 40 79 93 133 188 62 340 47 83 137 225 125 204 126 171 170 162 135 186 137 104 266 278 123 126 193 53 59 43 30
146 144 143 144 147 165 82 85 353 67 85 167 290 88 32 39 223 120 42 127 137 174 99 239 97 36 59 149 197 160 178 170 173 164 208 224 70 105 100 78 73 54 50 19
141 140 143 144 139 135 109 111 128 58 89 51 37 350 330 9 30 96 117 269 152 173 177 154 176 129 119 141 246 144 208 178 129 94 263 77 82 63 66 68 62 41 44 30
141 140 138 133 121 116 78 84 359 92 108 93 326 322 13 328 19 55 81 122 57 94 65 90 124 122 77 128 184 113 186 127 177 180 123 97 61 63 74 64 40 58 28 40
136 135 132 125 125 112 85 74 4 62 114 129 132 18 341 358 58 72 71 83 87 67 48 66 206 83 62 6 60 344 27 329 141 154 95 100 85 80 67 65 12 54 352 312
133 134 133 134 131 103 71 43 340 352 93 98 81 307 18 37 53 52 52 62 63 83 122 233 50 28 99 88 171 105 94 69 59 102 69 78 76 68 45 1 297 313 306 338
133 131 124 102 81 68 86 160 172 24 62 84 90 58 330 16 42 29 28 25 37 92 64 33 119 16 79 82 116 132 82 89 87 73 82 49 50 21 325 320 351 3 18 21
123 113 107 97 100 119 38 351 25 26 78 82 103 108 67 337 82 47 31 34 29 5 141 357 89 9 79 84 203 103 95 98 84 71 71 111 87 297 331 359 18 17 5 0
120 116 108 63 43 77 211 228 313 284 116 128 127 147 175 125 86 117 16 81 63 294 65 288 79 93 179 233 132 85 64 74 83 82 58 45 17 19 18 9 357 7 345 356
131 94 64 57 315 95 99 35 30 22 337 38 102 106 149 120 137 80 90 21 153 118 239 68 80 233 54 82 84 93 96 97 73 66 34 32 14 353 323 315 312 328 326 340
82 79 86 80 102 99 82 83 101 158 74 159 119 120 133 177 120 152 168 184 171 113 225 123 194 130 96 86 82 83 76 72 40 51 37 20 5 353 336 316 341 360 358 340
124 113 107 111 158 110 110 170 158 162 169 130 119 140 136 98 105 99 290 102 54 154 153 85 153 120 112 106 108 90 58 49 37 26 14 359 349 326 345 352 336 325 313 306
98 77 103 123 169 85 154 171 200 114 162 140 130 110 130 55 65 61 80 90 201 102 62 172 70 133 101 80 63 56 49 40 21 357 339 321 328 344 331 320 311 305 292 282
107 122 112 140 195 215 243 154 122 127 119 119 115 70 111 147 92 146 105 186 91 104 118 92 115 104 83 69 52 48 28 352 342 327 329 329 331 324 319 310 294 291 298 278
70 53 92 68 92 54 46 90 94 101 102 101 94 58 83 38 81 122 90 80 170 160 85 105 129 99 97 90 63 49 351 353 344 334 316 301 302 298 289 292 288 289 290 283
57 44 72 85 85 71 76 91 102 107 118 83 60 111 104 131 129 93 186 157 122 109 104 144 124 123 91 75 50 34 14 338 314 322 303 293 292 289 277 279 280 272 274 284
52 19 50 89 86 81 71 72 86 94 73 118 99 92 152 106 109 85 31 130 140 133 135 97 103 104 89 63 38 1 318 302 289 287 280 276 287 283 286 289 289 268 272 262